Location: Metacom Observatory
(41.7315°N, 71.2698°W)
Time: 15:22:52
(UTC-04:00)

OTV 5 (USA 277) - Visible Passes

Search period start: 21 July 2018 00:00
Search period end: 31 July 2018 00:00
Orbit: 312 x 321 km, 54.5° (Epoch: 05 July)

Date Brightness Start Highest point End Pass type
(mag) Time Alt. Az. Time Alt. Az. Time Alt. Az.
28 Jul ? 04:21:39 10° SSE 04:23:07 14° SE 04:24:36 10° E visible
29 Jul ? 04:35:23 14° SSW 04:37:23 37° SE 04:39:55 10° ENE visible
30 Jul ? 04:49:27 13° WSW 04:51:47 67° NW 04:54:28 10° NE visible
